Content
SEND FEEDBACK

Daily
Averages
Monthly
Summary
Slovenia

VELENJE, SLOVENIA


Home > Europe > Slovenia
Elevation: 1483 feet     Latitude: 46 29N     Longitude: 015 07E

WEATHER
 
SELECT A DAY
Number of Records: 296,807;   Date Range: 1/10/97 - 9/29/14
 
SHARE

PRINT THIS DATA

[ ← Previous Day ]
WEATHER ALMANAC - FEBRUARY 13, 2013
[ Next Day → ]
[ °C ]   °F
Weather ElementAverageHighLow
Temperature31.1 °F32 °F (1:00 am)30 °F (7:00 am)
Dewpoint28.5 °F30.2 °F (10:00 am)26.6 °F (8:00 pm)
Humidity90 %95 % (7:00 pm)81 % (1:00 am)
Barometer29.96 in30.09 in (10:00 pm)29.86 in (12:30 am)
Wind Speed14 mph29.1 mph (10:00 pm)
Weather ElementAverage
Visibility1.5 mi
Wind DirectionSSW (188 °)

Weather ElementTotal
Precipitation---
Heating Degree Days34 (Base 65)
Averaged from 55 records on February 13, 2013
WEATHER CONDITIONS BREAKOUT
WIND DIRECTION BREAKOUT
WEATHER BY HOUR - FEBRUARY 13, 2013
[ °C ]   °F
Local TimeTemperatureDewpointHumidityBarometerVisibilityWind DirectionWind SpeedGust SpeedPrecipitationEventsConditions
12:30 AM30.2 °F28.4 °F93 %29.86 in3.1 miNorth (10°)6.9 mphSnowLight Snow
1:00 AM31.0 °F28.0 °F81 %29.91 inNNE (30°)8.9 mph
1:00 AM32.0 °F28.4 °F87 %29.86 in3.7 miNNE (20°)6.9 mphOvercast
1:30 AM32.0 °F28.4 °F87 %29.86 in3.7 miNorth (10°)5.8 mphScattered Clouds
2:00 AM32.0 °F28.4 °F87 %29.86 in4.3 miNNE (30°)4.6 mphMostly Cloudy
2:30 AM32.0 °F28.4 °F87 %29.86 in4.3 miNNE (20°)5.8 mphMostly Cloudy
3:00 AM32.0 °F28.4 °F87 %29.86 in3.1 miNNE (30°)4.6 mphSnowLight Snow
3:30 AM32.0 °F28.4 °F87 %29.86 in3.1 miNNE (20°)6.9 mphSnowLight Snow
4:00 AM31.0 °F28.0 °F85 %29.93 inNE (40°)6.7 mph
4:00 AM30.2 °F28.4 °F93 %29.86 inNE (40°)5.8 mphSnowLight Snow
4:30 AM30.2 °F28.4 °F93 %29.89 in1.8 miNNE (30°)4.6 mphSnowLight Snow
5:00 AM30.2 °F28.4 °F93 %29.89 in1.3 miNNE (30°)4.6 mphSnowLight Snow
5:30 AM30.2 °F28.4 °F93 %29.89 in0.8 miNNE (30°)4.6 mphSnowLight Snow
6:00 AM30.2 °F28.4 °F93 %29.89 in1.1 miNNE (20°)5.8 mphSnowLight Snow
6:30 AM30.2 °F28.4 °F93 %29.89 in1.1 miNNE (20°)6.9 mphSnowLight Snow
7:00 AM30.0 °F29.0 °F93 %29.96 in1.0 miNNE (20°)8.9 mphSnowLight Snow
7:00 AM30.2 °F28.4 °F93 %29.92 in1.1 miNNE (20°)9.2 mphSnowLight Snow
7:30 AM30.2 °F28.4 °F93 %29.92 in0.7 miNorth (10°)9.2 mphSnowLight Snow
8:00 AM30.2 °F28.4 °F93 %29.92 in0.6 miNorth (10°)9.2 mphSnowLight Snow
8:30 AM30.2 °F28.4 °F93 %29.95 in0.6 miNNE (30°)9.2 mphSnowSnow
9:00 AM30.2 °F28.4 °F93 %29.95 in0.6 miNNE (20°)10.4 mphSnowLight Snow
9:30 AM30.2 °F28.4 °F93 %29.95 in0.6 miNNE (20°)10.4 mphSnowLight Snow
10:00 AM31.0 °F29.0 °F92 %30.01 in1.0 miNNE (20°)8.9 mphSnowLight Snow
10:00 AM32.0 °F30.2 °F93 %29.95 in0.6 miNNE (20°)8.1 mphSnowLight Snow
10:30 AM32.0 °F30.2 °F93 %29.98 in1.1 miNorth (10°)9.2 mphSnowLight Snow
11:00 AM32.0 °F28.4 °F87 %29.98 in1.1 miNorth (350°)12.7 mphSnowLight Snow
11:30 AM32.0 °F28.4 °F87 %29.98 in0.9 miNorth (360°)12.7 mphSnowLight Snow
12:00 PM32.0 °F30.2 °F93 %29.98 in0.7 miNorth (360°)12.7 mphSnowLight Snow
12:30 PM32.0 °F30.2 °F93 %29.98 in0.7 miNorth (360°)12.7 mphSnowLight Snow
1:00 PM32.0 °F29.0 °F83 %30.02 in1.0 miNorth17.9 mphSnowLight Snow
1:00 PM32.0 °F28.4 °F87 %29.98 in1.2 miNorth (350°)16.1 mphSnowLight Snow
1:30 PM32.0 °F28.4 °F87 %29.95 in1.2 miNorth (350°)18.4 mphSnowBlowing Snow
2:00 PM32.0 °F28.4 °F87 %29.95 in2.2 miNorth (350°)18.4 mphSnowLight Low Drifting Snow
2:30 PM32.0 °F28.4 °F87 %29.98 in2.2 miNorth (360°)16.1 mphSnowLight Low Drifting Snow
3:00 PM32.0 °F28.4 °F87 %29.98 in1.6 miNorth (360°)16.1 mphSnowLight Low Drifting Snow
3:30 PM30.2 °F28.4 °F93 %29.98 in0.6 miNorth (360°)16.1 mphSnowLight Low Drifting Snow
4:00 PM31.0 °F29.0 °F88 %30.04 in2.0 miNorth15.7 mphSnowLight Snow
4:00 PM32.0 °F28.4 °F87 %29.98 in1.9 miNorth (360°)15.0 mphSnowLight Low Drifting Snow
4:30 PM32.0 °F28.4 °F87 %29.98 in1.9 miNorth (360°)15.0 mphSnowLight Low Drifting Snow
5:00 PM32.0 °F28.4 °F87 %30.01 in1.2 miNorth (350°)16.1 mphSnowLight Low Drifting Snow
5:30 PM30.2 °F28.4 °F93 %30.01 in1.2 miNorth (350°)18.4 mphSnowLight Low Drifting Snow
6:00 PM30.2 °F28.4 °F93 %30.01 in1.2 miNorth (350°)20.7 mphSnowLow Drifting Snow
6:30 PM30.2 °F28.4 °F93 %30.01 in1.2 miNorth (350°)20.7 mphSnowLow Drifting Snow
7:00 PM30.0 °F29.0 °F95 %30.07 in1.0 miNorth (350°)22.4 mphSnowSnow
7:00 PM30.2 °F28.4 °F93 %30.01 in1.2 miNorth (350°)19.6 mphSnowBlowing Snow
7:30 PM30.2 °F28.4 °F93 %30.01 in1.2 miNNW (340°)23.0 mphSnowBlowing Snow
8:00 PM30.2 °F26.6 °F86 %30.01 in1.6 miNNW (340°)25.3 mphSnowBlowing Snow
8:30 PM30.2 °F28.4 °F93 %30.04 in1.6 miNNW (340°)24.2 mphSnowBlowing Snow
9:00 PM30.2 °F28.4 °F93 %30.04 in1.2 miNNW (340°)25.3 mphSnowBlowing Snow
9:30 PM30.2 °F28.4 °F93 %30.04 in1.2 miNNW (340°)25.3 mphSnowBlowing Snow
10:00 PM31.0 °F28.0 °F85 %30.09 in1.0 miNNW (340°)29.1 mphSnowLight Snow
10:00 PM30.2 °F28.4 °F93 %30.04 in1.2 miNNW (340°)27.6 mphSnowBlowing Snow
10:30 PM32.0 °F28.4 °F87 %30.04 in1.6 miNNW (340°)24.2 mphSnowLight Snow
11:00 PM32.0 °F28.4 °F87 %30.04 in1.3 miNNW (340°)23.0 mphSnowLight Snow
11:30 PM32.0 °F28.4 °F87 %30.04 in3.1 miNNW (340°)25.3 mphSnowLight Snow
Hourly data recorded from LJMB, located miles away from Velenje, Slovenia







STORIES FROM OUR PARTNERS